GW4314 Weather Reports


time (UTC)temp
C
wind
direction
speed
KPH
gust
KPH
rain 1hr
cm
rain 24hr
cm
rain mn
cm
humidity
%
barometer
mb
20260506044525 16 20 0.0 3.2 0.00 0.58 0.38 44 1015.3
20260506043008 17 5 1.6 3.2 0.00 0.61 0.38 40 1015.2
20260506041508 17 321 3.2 6.4 0.00 0.64 0.38 39 1015.0
20260506040016 17 343 1.6 4.8 0.00 0.69 0.38 40 1014.7
20260506034518 18 310 1.6 9.7 0.00 0.69 0.38 40 1014.3
20260506033019 18 282 1.6 9.7 0.00 0.69 0.38 40 1014.1
20260506031508 18 301 3.2 11.3 0.00 0.71 0.38 41 1013.8
20260506030012 18 239 6.4 14.5 0.00 0.71 0.38 39 1013.6
20260506024513 18 260 11.3 20.9 0.00 0.71 0.38 38 1013.5
20260506023020 18 232 9.7 20.9 0.00 0.71 0.38 37 1013.3
20260506021522 19 253 11.3 22.5 0.00 0.71 0.38 36 1012.9
20260506020010 20 284 11.3 22.5 0.00 0.74 0.38 34 1012.6
20260506014512 20 262 11.3 24.1 0.00 0.76 0.38 31 1012.5
20260506013013 20 219 16.1 25.7 0.00 0.81 0.38 30 1012.3
20260506011525 21 292 16.1 27.4 0.00 0.81 0.38 31 1012.3
20260506010023 21 234 19.3 32.2 0.00 0.81 0.38 31 1012.1
20260506004509 21 257 19.3 33.8 0.00 0.81 0.38 29 1012.0
20260506003014 21 276 17.7 37.0 0.00 0.81 0.38 30 1011.9
20260506001519 22 257 17.7 38.6 0.00 0.81 0.38 29 1011.7
20260506000022 22 236 20.9 32.2 0.00 0.81 0.38 30 1011.6
20260505234506 22 286 16.1 29.0 0.00 0.81 0.38 29 1011.5
20260505233017 22 244 17.7 30.6 0.00 0.81 0.38 29 1011.4
20260505231520 23 258 14.5 30.6 0.00 0.81 0.38 30 1011.5
20260505230018 22 250 14.5 30.6 0.00 0.81 0.38 29 1011.5
20260505224530 22 314 12.9 30.6 0.00 0.81 0.38 31 1011.7
20260505223011 22 224 12.9 30.6 0.00 0.81 0.38 33 1011.9
20260505221514 22 236 24.1 32.2 0.00 0.81 0.38 33 1011.9
20260505220008 22 203 12.9 32.2 0.00 0.81 0.38 34 1012.0
20260505214504 21 211 12.9 27.4 0.00 0.81 0.38 34 1012.3
20260505213002 22 260 17.7 30.6 0.00 0.81 0.38 37 1012.3
20260505211503 22 278 12.9 29.0 0.00 0.81 0.38 41 1012.4
20260505210004 21 232 14.5 25.7 0.00 0.81 0.38 46 1012.7
20260505204503 21 307 6.4 27.4 0.00 0.81 0.38 49 1012.9
20260505203005 21 307 17.7 33.8 0.00 0.81 0.38 47 1012.8
20260505201506 21 240 17.7 30.6 0.00 0.81 0.38 41 1012.9
20260505200012 21 231 19.3 25.7 0.00 0.81 0.38 48 1013.1
20260505194504 20 241 9.7 27.4 0.00 0.81 0.38 54 1013.2
20260505193009 20 242 9.7 22.5 0.00 0.81 0.38 55 1013.3
20260505191508 19 267 9.7 20.9 0.00 0.81 0.38 58 1013.6
20260505190006 19 188 16.1 22.5 0.00 0.81 0.38 55 1013.7
20260505184513 19 209 3.2 9.7 0.00 0.81 0.38 59 1013.9
20260505183006 18 235 6.4 12.9 0.00 0.81 0.38 61 1014.1
20260505181509 17 270 0.0 8.0 0.00 0.81 0.38 62 1014.2
20260505180011 17 238 6.4 14.5 0.00 0.81 0.38 65 1014.5
20260505174511 17 230 9.7 16.1 0.00 0.81 0.38 65 1014.6
20260505173019 17 283 6.4 14.5 0.00 0.81 0.38 67 1014.6
20260505171505 17 247 1.6 12.9 0.00 0.81 0.38 67 1014.5
20260505170012 16 286 1.6 9.7 0.00 0.81 0.38 67 1014.5
20260505164509 16 282 4.8 12.9 0.00 0.81 0.38 69 1014.5
20260505163014 16 230 6.4 11.3 0.00 0.81 0.38 71 1014.4
20260505161513 16 243 4.8 12.9 0.00 0.81 0.38 73 1014.6
20260505153012 15 223 4.8 9.7 0.00 0.81 0.38 85 1014.3
20260505151514 15 205 8.0 11.3 0.00 0.81 0.38 85 1014.3
20260505124509 13 326 1.6 3.2 0.00 0.81 0.38 90 1013.3
20260505123012 13 271 0.0 3.2 0.03 0.81 0.38 90 1013.0
20260505121519 13 242 0.0 3.2 0.03 0.81 0.38 90 1013.1
20260505120005 13 233 1.6 3.2 0.03 0.81 0.38 90 1012.9
20260505114506 13 156 0.0 6.4 0.05 0.81 0.38 90 1012.4
20260505113012 13 216 3.2 8.0 0.03 0.79 0.36 90 1012.8
20260505111514 13 188 3.2 8.0 0.08 0.79 0.36 89 1012.8
20260505101521 14 204 20.9 35.4 0.05 0.71 0.28 84 1013.8
20260505100018 14 219 17.7 29.0 0.03 0.69 0.25 85 1013.6
20260505094529 15 203 14.5 20.9 0.05 0.69 0.25 80 1013.4
20260505093024 15 170 16.1 22.5 0.08 0.69 0.25 80 1013.7
20260505091509 14 238 8.0 11.3 0.08 0.66 0.23 82 1014.1
20260505090013 14 265 1.6 12.9 0.10 0.66 0.23 82 1013.9
20260505084532 14 160 9.7 25.7 0.10 0.64 0.20 81 1014.6
20260505083027 14 174 19.3 30.6 0.13 0.61 0.18 82 1015.0
20260505081527 14 165 12.9 25.7 0.15 0.58 0.15 81 1015.4
20260505080011 15 180 16.1 27.4 0.13 0.56 0.13 81 1016.1
20260505074515 15 171 17.7 24.1 0.15 0.53 0.10 82 1016.1
20260505073034 15 209 6.4 11.3 0.13 0.48 0.05 84 1016.6
20260505071525 15 219 3.2 8.0 0.13 0.43 0.00 84 1016.6
20260505070036 15 190 3.2 8.0 0.13 0.43 0.00 83 1016.3
20260505064511 15 234 4.8 9.7 0.10 0.38 0.38 82 1016.4
20260505063022 15 272 1.6 9.7 0.10 0.36 0.36 82 1016.4
20260505061532 15 239 6.4 11.3 0.05 0.30 0.30 80 1016.5
20260505060026 15 235 8.0 12.9 0.05 0.30 0.30 79 1016.6
20260505054533 15 183 11.3 16.1 0.05 0.28 0.28 78 1016.2
20260505053020 15 195 11.3 17.7 0.05 0.25 0.25 79 1016.3
20260505051524 15 197 6.4 9.7 0.08 0.25 0.25 80 1016.1